THORAD AGENA D DEB, 5446

Orbit data source: Space-Track

THORAD AGENA D DEB, 5446 is space debris in SSO originally from a launch on Wed, 08 Apr 1970 UTC launched from the Air Force Western Test Range (AFWTR). Debris objects in space refer to the collection of defunct objects orbiting the Earth. Examples of debris include non-operational satellites, rocket bodies, and fragments generated from explosions, collisions, or faulty payload assembly.

Loading next visibility...
Identifier
5446, 1970-025LE
Orbit
SSO
Country
Flag of USUS
Related business
Manufacturer
Unknown
Mission
Spacecraft
Bus & Motor
Unknown
Mass
Unknown
Launch date (UTC)
1970-04-08 (56 years ago)
Launch vehicle
Unknown
Launch site
Air Force Western Test Range (AFWTR)
Object type
Payload
Rocket body
Debris
Shape & HBR
Unknown shape, 0.1 m
Radar Cross Section
Medium (>0.1 m² and <1 m²)

Expand to show TLE details & history
Last TLE update: 5 hours ago

TLE from 5 hours ago
0 THORAD AGENA D DEB
1  5446U 70025LE  26256.14885927  .00001708  00000-0  17645-2 0  9999
2  5446 100.4381 134.5144 0085044  28.3240 123.0953 13.76043588787763
Epoch: 2026-09-13T03:34Z
TLE epoch observation values (Epoch: 2026-09-13T03:34:21.440Z)
Latitude
27.31093°
Longitude
-85.79218°
Altitude
1,015.72 km
Speed
7.329 km/s
True Right ascension
21h 19m 46s
True Declination
27° 10' 33"
Sunlit
Object was in full shadow at epoch
Visualization orbit readout
Latitude
Unknown
Longitude
Unknown
Altitude
Unknown
Speed
Unknown
Apparent Right ascension
Unknown
Apparent Declination
Unknown
Sunlit
N/A
Visualization observer readout
Local Sidereal Time
01:27:52
Azimuth
Unknown
Elevation
Unknown
Doppler factor
Unknown
Orbital elements
Apogee altitude
1,037.796 km
Perigee altitude
912.723 km
Semi-major axis
7,353.396 km
Eccentricity
0.0085
Inclination
100.4381°
RAAN
134.5144°
Arg. of periapsis
28.324°
True anomaly
123.90699°
Mean anomaly
123.0953°
Eccentric anomaly
123.50162°
Mean motion
3.442 °/min
Orbital period
104.59 mins
BSTAR
0.0017645
Loading maneuver chart data...
Computing Atmospheric mass density...

Documentation

Showing up to 5 results
|